Simultaneous Nadir Overpasses (SNOs) Predictions

Prediction of SNOs between GOES-14 and NPP Satellite Orbit:

Table of predicted SNOs for the next 14.0 days since TLE Epoch: 9/28/2024
Index Date Time (GOES-14) GOES-14 Lat,Lon NPP Lat,Lon Distance(km) Time Diff (sec)
1 09/28/2024 20:45:49 0.06,-108.44 -0.41,-110.53 238.59 80
2 09/29/2024 20:29:42 0.06,-108.45 0.63,-106.00 279.65 80
3 10/01/2024 08:51:26 -0.06,-108.51 0.55,-111.25 312.77 80
4 10/02/2024 08:29:59 -0.06,-108.51 -0.44,-106.71 205.13 80
5 10/03/2024 20:51:51 0.06,-108.47 -0.75,-111.99 402.57 80
6 10/04/2024 20:35:45 0.06,-108.47 0.30,-107.46 115.75 80
7 10/06/2024 08:57:29 -0.07,-108.54 0.86,-112.72 476.09 80
8 10/07/2024 08:36:02 -0.07,-108.54 -0.13,-108.17 41.47 80
9 10/09/2024 20:39:06 0.07,-108.48 -0.02,-108.92 49.84 80
10 10/10/2024 20:22:59 0.08,-108.48 0.99,-104.38 467.87 80
